{"data":{"norad_id":39215,"intl_designator":"2013-038A","name":"ALPHASAT","alt_names":[],"object_type":"PAYLOAD","status":"ACTIVE","operator":null,"country":"IM","launch_date":"2013-07-25","launch_site_code":"FRGUI","launch_vehicle":null,"mission":null,"orbit_class":"UNKNOWN","rcs_meters":16.3096,"size_class":null,"mass_kg":null,"dimensions":null,"purposes":["comms"],"wikipedia_slug":null,"has_3d_model":false,"image_url":null,"decayed_at":null,"tle_current":{"epoch":"2026-09-20T01:38:31.431840Z","epoch_age_seconds":59199,"freshness":"FRESH","line1":"1 39215U 13038A   26263.06841935  .00000133  00000+0  00000+0 0  9995","line2":"2 39215   3.0035   0.6902 0003697 187.9645 219.8198  1.00274196 44977","mean_motion":1.00274196,"eccentricity":0.0003697,"inclination_deg":3.0035,"raan_deg":0.6902,"arg_perigee_deg":187.9645,"mean_anomaly_deg":219.8198,"bstar":0,"rev_number":4497,"period_min":1436.0623744119,"perigee_km":35770.331032377,"apogee_km":35801.507135446,"semimajor_km":42164.056083911,"source":"CELESTRAK","updated_at":"2026-09-20T09:00:35.205179Z"}}}